Flag for Germany Weather past 2 weeks in Erding, Bavaria, Germany

Now
16 °F

Broken clouds.


Feels Like: 0 °F
Forecast: 8 / 30 °F
Wind: 16 mph from Southwest

Location: Munich / Franz Josef Strauss Airport

Current Time: Dec 29, 2014 at 10:03:14 AM

Latest Report: Dec 29, 2014 at 9:20 AM


Visibility: 6 mi

Pressure: 30.33 "Hg

Humidity: 86%

Dew point: 12 °F

Location of ErdingLocation

Historic Weather in Erding — Graph

°F

Erding temperature yesterday

Maximum temperature yesterday: 32 °F (at 12:20 AM)
Minimum temperature yesterday: 9 °F (at 10:20 PM)
Average temperature yesterday: 24 °F

Past Weeks' High & Low Weather Summary

 TemperatureHumidityPressure
High55 °F (Dec 14, 12:20 PM)100% (Dec 16, 2:20 AM)30.48 "Hg (Dec 16, 2:20 AM)
Low5 °F (Dec 29, 1:50 AM)35% (Dec 23, 12:20 PM)29.47 "Hg (Dec 27, 4:20 PM)
Average39 °F82%30.11 "Hg
* Reported Dec 14 8:20 AM — Dec 29 8:50 AM, Erding, Weather by CustomWeather, © 2014

Note: Actual official high and low records may vary slightly from our data, if they occured in-between our weather recording intervals... More about our weather records

Advertising

Erding weather history for previous 24 hours

 ConditionsComfort  
Time TempWeatherWind HumidityBarometerVisibility
8:50 AM
Dec 29
12 °FClear.16 mph92%30.33 "Hg6 mi
8:20 AM12 °FBroken clouds.17 mph85%30.36 "Hg6 mi
7:50 AM10 °FPartly cloudy.13 mph92%30.39 "Hg5 mi
7:20 AM10 °FPassing clouds.15 mph92%30.39 "Hg5 mi
6:50 AM10 °FPassing clouds.14 mph92%30.39 "Hg4 mi
6:20 AM12 °FSnow flurries. Mostly cloudy.14 mph92%30.39 "Hg4 mi
5:50 AM12 °FMostly cloudy.10 mph92%30.42 "Hg5 mi
5:20 AM12 °FSnow flurries. Mostly cloudy.9 mph100%30.42 "Hg5 mi
4:50 AM14 °FSnow flurries. Low clouds.10 mph92%30.42 "Hg5 mi
4:20 AM14 °FSnow flurries. Low clouds.8 mph92%30.42 "HgN/A
3:50 AM12 °FSnow flurries. Low clouds.10 mph92%30.42 "HgN/A
3:20 AM9 °FPassing clouds.9 mph92%30.42 "HgN/A
2:50 AM7 °FPassing clouds.8 mph92%30.42 "HgN/A
2:20 AM5 °FClear.8 mph92%30.39 "Hg10 mi
1:50 AM5 °FClear.9 mph92%30.39 "Hg10 mi
1:20 AM7 °FClear.9 mph92%30.39 "Hg10 mi
12:50 AM9 °FClear.9 mph92%30.39 "Hg10 mi
12:20 AM9 °FClear.8 mph92%30.36 "Hg10 mi
11:50 PM
Dec 28
9 °FClear.9 mph92%30.36 "Hg10 mi
11:20 PM10 °FClear.9 mph92%30.36 "Hg10 mi
10:20 PM9 °FClear.3 mph72%30.33 "Hg10 mi
9:50 PM12 °FClear.3 mph85%30.33 "Hg10 mi
9:20 PM10 °FClear.3 mph85%30.30 "Hg10 mi
8:50 PM14 °FClear.3 mph85%30.30 "Hg10 mi
8:20 PM14 °FClear.3 mph85%30.27 "Hg10 mi
7:50 PM16 °FClear.5 mph79%30.27 "Hg10 mi
7:20 PM16 °FClear.2 mph79%30.24 "Hg10 mi
6:50 PM18 °FPassing clouds.6 mph79%30.21 "HgN/A
6:20 PM19 °FPassing clouds.7 mph79%30.18 "HgN/A
5:50 PM21 °FPassing clouds.6 mph74%30.18 "HgN/A
5:20 PM21 °FPassing clouds.9 mph80%30.15 "HgN/A
4:50 PM23 °FPassing clouds.8 mph80%30.12 "HgN/A
4:20 PM23 °FBroken clouds.8 mph86%30.09 "HgN/A
3:50 PM25 °FBroken clouds.10 mph80%30.07 "HgN/A
3:20 PM25 °FBroken clouds.10 mph86%30.04 "HgN/A
2:50 PM27 °FPartly sunny.9 mph80%30.01 "HgN/A
2:20 PM27 °FLight snow. Broken clouds.10 mph86%29.98 "Hg3 mi
1:50 PM27 °FLight snow. Overcast.9 mph86%29.95 "Hg3 mi
1:20 PM27 °FLight snow. Low clouds.10 mph93%29.92 "Hg3 mi
12:50 PM27 °FSnow. Low clouds.9 mph93%29.89 "Hg1 mi
12:20 PM27 °FSnow. Low clouds.9 mph93%29.89 "Hg1 mi
11:50 AM27 °FSnow. Low clouds.9 mph93%29.86 "Hg1 mi
11:20 AM27 °FLight snow. Broken clouds.9 mph93%29.86 "Hg6 mi
10:50 AM27 °FLight snow. Broken clouds.9 mph93%29.83 "Hg6 mi
10:20 AM27 °FLight snow. Partly sunny.12 mph93%29.80 "Hg6 mi
Weather by CustomWeather, © 2014

See weather overviewHow to use our weather pages